Wind_Speed
22 21 21 21 21 21 21 22 22 22 23 23 24 25 26 27 28 28 30 31 33 34 35 35 36 36 36 36 36 35 35 35 35 34 34 34 34 33 32 31 31 30 30
25 24 24 24 23 23 24 24 25 25 25 26 27 27 28 29 30 31 32 33 34 36 36 37 37 38 38 37 37 36 36 36 36 35 35 35 34 34 33 32 32 31 31
28 27 27 26 26 26 26 27 27 28 28 29 29 29 30 31 32 33 34 35 36 37 38 38 39 39 39 38 38 37 36 36 37 36 36 35 35 35 34 33 33 32 32
31 30 30 30 30 29 29 30 30 30 30 31 31 32 33 33 34 36 37 38 39 39 39 40 40 41 40 39 38 37 37 37 37 37 37 36 36 36 35 34 34 33 32
34 34 33 33 33 33 33 32 32 33 33 33 34 34 35 35 37 38 39 40 41 41 41 42 42 41 41 40 38 38 38 38 38 38 37 37 37 37 36 35 34 34 33
38 38 37 37 36 36 36 36 36 36 36 36 37 37 37 38 39 40 41 42 43 43 43 43 42 42 41 40 39 39 38 38 38 38 38 38 37 37 36 35 35 34 34
41 40 40 40 39 39 39 40 39 39 39 39 39 40 40 41 41 42 43 44 45 44 44 43 43 42 41 40 40 40 39 39 38 38 38 38 37 37 36 36 35 35 35
44 44 43 42 42 42 43 43 42 41 41 42 42 43 42 42 42 43 44 44 45 45 45 45 44 43 41 41 41 40 40 39 38 38 38 37 37 37 36 36 36 36 35
46 47 47 46 45 45 45 45 45 44 44 44 45 46 46 45 46 45 44 44 44 44 45 45 44 43 42 42 41 40 39 39 38 38 37 37 36 36 36 35 36 35 35
48 48 49 49 48 48 48 48 48 47 47 47 47 47 48 49 48 47 46 45 45 45 45 44 43 43 43 42 41 40 39 39 38 38 37 36 36 35 35 34 34 34 33
50 50 51 51 51 51 51 51 51 50 49 49 48 48 49 48 48 48 47 46 46 45 44 43 43 43 42 41 41 40 39 38 37 36 36 35 35 34 34 34 33 33 31
51 51 51 52 53 53 53 53 52 51 50 49 50 49 49 48 48 47 47 46 46 45 44 43 43 42 41 41 40 39 38 37 36 36 35 35 34 34 34 33 32 31 31
52 52 52 52 52 52 52 51 51 50 50 50 50 49 49 48 48 47 47 46 46 45 44 43 43 42 41 40 39 38 37 36 36 35 35 34 34 33 33 32 31 30 30
52 53 53 52 52 52 51 51 50 50 50 50 50 49 48 47 47 47 47 46 45 44 44 43 42 41 40 39 38 37 36 35 35 35 34 34 33 32 32 31 30 30 30
53 53 52 52 51 51 51 51 51 50 50 50 49 49 48 48 47 47 46 45 44 43 42 41 40 40 39 38 37 36 35 35 34 34 33 33 33 32 31 30 30 30 30
53 52 52 51 51 50 51 50 50 49 49 49 48 48 47 47 46 45 44 43 42 42 41 40 39 38 38 37 36 35 34 34 33 33 32 32 32 31 31 31 30 30 30
51 50 50 50 50 50 50 49 49 48 48 47 47 46 45 45 44 44 43 42 41 40 39 38 38 37 36 35 34 34 33 33 33 32 32 32 31 31 31 31 31 31 30
50 50 49 48 48 48 48 47 47 47 47 47 46 45 44 44 44 43 42 40 40 39 38 37 36 35 34 34 33 33 32 32 32 32 32 31 31 31 31 31 32 32 32
48 48 48 47 47 47 46 46 46 46 46 46 45 45 44 44 43 42 40 39 38 37 37 36 35 34 33 33 32 32 31 31 31 31 31 31 31 32 32 32 33 33 33
47 47 46 46 46 46 46 46 46 46 45 45 44 44 43 42 40 39 38 37 36 36 35 34 33 33 32 31 31 31 31 31 31 31 31 32 32 33 33 33 34 35 35
45 44 44 44 44 44 44 44 44 44 43 43 42 42 41 39 38 38 36 35 35 34 33 33 32 32 31 31 31 31 31 31 32 32 32 33 33 34 34 35 36 36 37
41 41 41 42 42 42 42 42 42 42 41 41 40 39 38 37 36 35 35 34 33 33 32 32 31 31 31 30 30 30 31 31 32 32 33 34 35 35 36 37 37 38 39
39 39 39 40 40 40 40 40 39 39 38 37 37 36 35 35 34 33 33 32 32 32 31 31 31 30 30 30 30 31 31 32 32 33 34 35 36 36 37 38 39 39 39
38 38 38 38 38 38 38 37 37 36 35 34 34 34 33 32 32 31 31 31 31 30 30 30 30 30 30 30 30 31 32 32 33 34 35 36 36 37 38 39 39 39 40
36 36 35 35 35 35 35 34 34 34 33 33 32 32 32 31 31 31 30 30 30 30 30 30 30 30 30 30 31 32 32 33 34 35 36 36 37 38 39 40 40 40 41
34 34 33 33 33 33 32 32 32 32 31 31 31 30 30 30 29 29 29 29 29 29 29 29 30 30 30 31 32 32 33 34 35 36 37 37 38 39 40 41 41 41 41
Wind_Direction
259 263 266 270 274 278 281 285 288 290 293 296 299 301 303 305 306 308 310 312 313 314 315 315 316 316 316 315 314 312 311 310 310 309 308 306 305 304 303 300 299 297 295
261 263 266 269 273 277 280 283 286 288 291 294 296 298 300 302 304 305 306 309 311 312 312 313 313 314 314 313 311 310 309 309 308 307 306 305 304 303 301 300 298 296 294
263 265 267 270 273 277 279 282 284 287 289 292 294 296 298 300 301 303 305 306 308 309 310 310 311 312 312 311 309 308 308 307 306 305 304 304 302 301 300 299 297 295 293
266 267 269 272 275 278 280 282 284 286 288 291 293 294 296 298 300 301 303 304 306 307 308 308 309 309 310 309 307 306 306 305 304 303 303 302 302 300 299 298 297 295 292
266 268 271 273 276 279 280 282 284 286 288 290 292 294 295 296 298 299 301 303 304 305 306 306 307 307 307 307 306 305 305 304 302 302 301 301 301 299 298 297 295 294 292
268 270 272 274 277 279 280 281 284 286 287 289 291 293 294 296 297 298 300 301 303 304 304 305 306 306 306 305 304 304 303 302 300 300 300 300 299 299 297 295 295 293 292
268 270 272 274 276 278 280 281 283 285 286 288 290 291 293 295 296 297 299 300 301 302 303 304 304 304 304 303 303 302 301 301 300 299 299 299 299 298 297 295 294 293 292
269 270 272 274 276 278 280 281 282 284 286 288 289 291 291 292 293 295 297 298 299 300 301 302 303 303 302 301 301 301 300 300 299 298 299 299 298 297 295 294 294 293 292
270 270 272 273 276 278 279 280 281 283 285 287 289 290 291 291 292 294 295 296 297 298 300 300 301 301 301 301 300 300 299 299 298 298 298 298 298 296 295 294 294 294 293
270 272 273 274 276 276 278 279 281 283 284 286 287 288 290 291 292 293 294 296 296 297 298 298 299 299 300 300 299 299 299 299 298 298 297 298 297 296 295 295 295 295 294
269 272 273 274 275 276 278 279 280 282 283 285 286 287 289 290 291 292 293 295 296 296 297 297 298 298 298 298 298 298 298 298 297 297 297 297 297 296 295 295 295 294 293
269 272 273 274 275 276 277 277 278 280 282 283 285 286 288 289 290 291 292 293 294 295 295 296 296 297 297 297 297 297 297 297 296 297 297 297 297 296 296 295 294 293 292
270 271 273 274 275 276 276 277 277 279 281 282 284 285 287 288 289 290 291 292 293 293 293 294 295 296 296 296 296 297 297 297 296 297 297 297 297 297 296 295 294 293 292
270 271 272 273 275 276 277 277 279 280 281 282 284 285 286 287 288 289 290 291 291 291 292 293 294 294 295 295 295 296 296 296 297 297 297 297 297 297 296 295 294 293 292
270 271 272 274 275 276 277 278 279 280 281 282 283 284 285 285 287 288 288 289 290 290 291 292 292 293 294 294 294 295 295 296 297 297 298 297 297 296 295 295 295 293 291
271 273 273 274 275 276 277 278 279 280 281 281 282 282 283 284 285 286 287 288 289 290 290 290 291 291 292 292 294 294 295 296 297 298 298 297 297 296 295 295 295 294 292
271 273 273 274 275 276 277 278 279 280 280 281 282 282 283 284 284 285 286 287 288 289 290 290 290 291 291 292 293 293 294 296 297 298 298 297 297 296 296 296 295 294 293
271 272 273 274 275 276 276 277 278 278 279 280 280 280 281 282 283 284 284 285 286 287 288 289 290 290 291 291 292 293 294 296 297 298 298 298 297 297 296 296 295 294 294
272 273 273 274 275 275 276 276 277 277 278 279 279 280 281 281 281 282 282 284 285 286 287 287 288 289 290 291 292 293 295 295 297 298 298 298 298 297 296 296 295 295 294
272 273 274 274 274 275 275 276 276 276 277 278 278 279 279 279 280 280 281 283 284 285 285 286 287 288 289 290 292 293 294 295 297 297 298 298 297 297 296 296 295 295 294
272 273 274 274 274 274 274 275 275 276 276 277 277 277 277 277 277 278 280 281 283 284 284 285 286 287 289 290 292 293 294 296 297 298 299 299 298 298 297 296 295 295 294
272 273 273 274 274 274 274 274 275 276 276 277 277 276 276 276 277 277 279 280 281 283 283 284 285 287 288 289 291 293 295 296 297 299 299 300 300 299 298 297 297 296 295
272 273 273 273 273 273 274 274 274 274 275 275 275 274 274 275 276 277 278 279 280 282 282 284 285 286 287 289 291 293 295 297 298 299 301 301 301 300 300 299 298 297 296
273 273 273 273 274 274 274 273 273 273 273 273 273 273 274 274 275 276 277 278 280 281 282 283 284 286 287 290 292 294 295 297 299 301 302 302 302 301 301 301 300 299 298
273 273 273 273 273 273 274 273 272 272 272 273 273 273 273 273 274 275 276 278 279 280 282 283 284 286 288 290 293 295 296 298 301 302 303 303 303 303 303 302 301 301 300
272 272 273 273 273 273 273 273 272 272 272 272 272 272 272 273 274 275 276 277 279 280 282 283 285 287 289 291 293 296 297 299 301 303 304 304 304 304 304 303 303 303 302
Height
5870 5871 5871 5872 5872 5872 5871 5871 5870 5870 5869 5868 5867 5865 5864 5862 5861 5859 5857 5854 5852 5849 5847 5844 5841 5838 5835 5832 5828 5825 5822 5819 5816 5813 5810 5807 5805 5802 5800 5797 5795 5793 5792
5866 5866 5867 5867 5867 5867 5867 5866 5866 5865 5864 5863 5862 5860 5859 5857 5855 5853 5851 5849 5847 5844 5841 5838 5835 5832 5829 5826 5822 5819 5816 5812 5809 5806 5803 5801 5798 5795 5793 5791 5788 5787 5785
5860 5861 5861 5862 5862 5862 5861 5861 5860 5860 5859 5858 5857 5855 5854 5852 5850 5847 5845 5843 5841 5838 5835 5832 5829 5826 5822 5819 5815 5812 5809 5806 5802 5799 5796 5794 5791 5788 5786 5784 5781 5780 5778
5854 5855 5855 5856 5856 5856 5856 5855 5854 5854 5853 5852 5851 5849 5848 5846 5843 5841 5839 5836 5834 5831 5828 5825 5822 5819 5815 5812 5809 5805 5802 5798 5795 5792 5789 5786 5783 5781 5778 5776 5774 5772 5770
5848 5848 5849 5849 5849 5849 5849 5849 5848 5847 5846 5845 5844 5843 5841 5839 5837 5834 5832 5829 5826 5824 5821 5818 5815 5811 5808 5805 5801 5798 5795 5791 5788 5784 5782 5779 5776 5773 5770 5768 5766 5764 5762
5841 5841 5842 5842 5842 5842 5842 5841 5841 5840 5839 5838 5837 5836 5834 5832 5829 5827 5824 5821 5819 5816 5813 5810 5807 5804 5800 5797 5794 5790 5787 5783 5780 5777 5774 5771 5768 5765 5762 5760 5758 5756 5754
5833 5834 5834 5834 5835 5834 5834 5834 5833 5832 5831 5830 5829 5828 5826 5824 5822 5819 5816 5813 5810 5807 5804 5801 5798 5795 5792 5789 5786 5782 5779 5775 5772 5769 5766 5763 5760 5757 5754 5752 5750 5747 5746
5825 5825 5826 5826 5826 5826 5826 5825 5824 5824 5823 5821 5820 5819 5818 5817 5814 5811 5808 5805 5802 5798 5795 5793 5790 5786 5783 5780 5777 5774 5770 5767 5764 5761 5757 5754 5751 5749 5746 5743 5741 5739 5737
5815 5816 5817 5817 5817 5817 5816 5816 5815 5814 5814 5812 5810 5809 5807 5806 5805 5803 5800 5797 5793 5790 5787 5784 5781 5777 5774 5771 5768 5765 5761 5758 5755 5752 5749 5746 5743 5740 5737 5735 5733 5730 5728
5807 5807 5807 5807 5807 5807 5807 5806 5806 5805 5804 5803 5801 5799 5797 5795 5793 5792 5790 5787 5784 5781 5778 5774 5771 5768 5765 5762 5759 5756 5753 5749 5746 5743 5740 5737 5735 5732 5729 5727 5724 5722 5719
5797 5797 5797 5797 5797 5797 5797 5796 5795 5794 5793 5792 5791 5789 5787 5785 5783 5781 5780 5777 5774 5771 5768 5765 5762 5759 5756 5753 5750 5747 5744 5741 5738 5735 5732 5729 5726 5724 5721 5718 5716 5714 5711
5786 5787 5787 5786 5786 5786 5786 5785 5784 5784 5783 5782 5780 5779 5777 5775 5773 5770 5769 5767 5764 5761 5758 5755 5752 5749 5746 5743 5740 5738 5735 5732 5729 5726 5723 5721 5718 5715 5713 5710 5708 5706 5703
5776 5776 5775 5776 5775 5775 5775 5774 5773 5773 5772 5771 5769 5768 5766 5764 5762 5760 5758 5756 5754 5751 5748 5746 5742 5740 5737 5734 5731 5729 5726 5723 5720 5717 5715 5712 5709 5707 5704 5702 5700 5697 5696
5764 5764 5764 5764 5764 5764 5763 5763 5762 5762 5761 5760 5758 5757 5755 5753 5752 5750 5748 5745 5743 5741 5738 5736 5733 5730 5727 5725 5722 5720 5717 5714 5711 5709 5706 5704 5701 5699 5696 5694 5692 5690 5688
5753 5753 5753 5753 5752 5752 5752 5752 5751 5750 5749 5748 5747 5746 5744 5743 5741 5739 5737 5735 5733 5731 5729 5726 5723 5720 5718 5715 5713 5711 5708 5706 5703 5700 5698 5695 5693 5690 5688 5686 5684 5682 5680
5741 5741 5741 5741 5741 5741 5740 5740 5739 5738 5738 5737 5736 5735 5733 5732 5730 5728 5726 5724 5722 5720 5718 5716 5714 5711 5709 5706 5704 5702 5700 5697 5695 5692 5690 5687 5684 5682 5680 5678 5676 5674 5672
5729 5730 5730 5730 5729 5729 5729 5728 5728 5727 5726 5725 5724 5723 5722 5720 5719 5717 5716 5714 5712 5710 5708 5706 5704 5702 5700 5697 5695 5693 5691 5688 5686 5684 5681 5679 5676 5674 5672 5670 5668 5666 5664
5718 5718 5718 5718 5718 5717 5717 5717 5716 5716 5715 5714 5713 5712 5711 5710 5708 5707 5705 5703 5702 5700 5699 5697 5694 5692 5691 5689 5687 5685 5682 5680 5678 5675 5673 5670 5668 5666 5663 5661 5659 5657 5655
5706 5706 5706 5706 5706 5706 5705 5705 5704 5704 5703 5702 5701 5700 5699 5698 5697 5696 5695 5693 5692 5690 5689 5687 5685 5684 5682 5680 5678 5676 5674 5672 5669 5667 5664 5662 5659 5657 5655 5652 5650 5648 5645
5695 5695 5694 5694 5694 5694 5693 5693 5693 5692 5691 5691 5690 5689 5688 5687 5686 5685 5684 5683 5682 5681 5679 5678 5676 5675 5673 5671 5669 5667 5665 5663 5661 5658 5656 5653 5651 5648 5646 5643 5641 5638 5635
5683 5683 5683 5683 5682 5682 5681 5681 5681 5680 5680 5679 5679 5678 5677 5676 5676 5675 5674 5674 5673 5672 5670 5669 5667 5666 5664 5662 5661 5659 5657 5655 5652 5650 5647 5645 5642 5639 5636 5633 5630 5627 5625
5672 5672 5672 5671 5671 5670 5670 5670 5669 5669 5668 5668 5668 5667 5667 5666 5666 5665 5665 5664 5663 5663 5661 5660 5659 5657 5656 5654 5652 5650 5648 5646 5644 5641 5638 5635 5632 5629 5626 5622 5619 5616 5613
5661 5661 5661 5660 5660 5659 5659 5658 5658 5658 5658 5657 5657 5657 5656 5656 5656 5656 5655 5655 5654 5653 5653 5652 5650 5648 5647 5645 5644 5642 5640 5637 5635 5632 5628 5625 5622 5618 5615 5611 5608 5604 5601
5651 5650 5650 5650 5649 5649 5648 5648 5648 5648 5648 5647 5647 5647 5647 5647 5647 5647 5646 5646 5645 5645 5644 5642 5641 5640 5638 5637 5635 5633 5631 5628 5625 5622 5619 5615 5611 5608 5604 5600 5596 5592 5588
5641 5640 5640 5640 5639 5639 5638 5638 5638 5638 5638 5638 5638 5638 5638 5638 5638 5638 5638 5637 5636 5636 5635 5633 5632 5631 5629 5628 5626 5624 5621 5619 5615 5612 5609 5605 5601 5597 5593 5588 5584 5580 5576
5631 5631 5630 5630 5630 5629 5629 5629 5629 5629 5629 5629 5629 5629 5629 5629 5629 5629 5629 5628 5628 5627 5626 5625 5623 5622 5620 5618 5616 5614 5612 5609 5606 5602 5598 5595 5590 5586 5582 5577 5572 5568 5563